Weather History for Blue Canyon, CA

Change the Weather History Date:

Tuesday, November 19, 2013

  Actual Average Record
Temperature  
Mean Temperature 40 °F -  
Max Temperature 42 °F 48 °F 70 °F (1976)
Min Temperature 37 °F 34 °F 17 °F (1977)
Degree Days  
Heating Degree Days 26    
Moisture  
Dew Point 39 °F    
Average Humidity 97    
Maximum Humidity 100    
Minimum Humidity 82    
Precipitation  
Precipitation 1.03 in - - ()
Sea Level Pressure  
Sea Level Pressure 30.04 in    
Wind  
Wind Speed 8 mph (SSE)    
Max Wind Speed 13 mph    
Max Gust Speed 17 mph    
Visibility 4 miles    
Events Fog , Rain    
Averages and records for this station are not official NWS values.
T = Trace of Precipitation, MM = Missing Value Source: NWS Daily Summary

Daily Weather History Graph

Daily Weather History Graph

Search for Another Location

Airport:

Trip Planner

Search our weather history database for the weather conditions in past years. The results will help you decide how hot, cold, wet, or windy it might be!

Date:

Astronomy

Nov. 19, 2013 Rise Set
Actual Time 6:51 AM PST 4:45 PM PST
Civil Twilight 6:22 AM PST 5:14 PM PST
Nautical Twilight 5:49 AM PST 5:46 PM PST
Astronomical Twilight 5:17 AM PST 6:18 PM PST
Moon 6:40 PM PST (11/19) 8:34 AM PST (11/19)
Length of Visible Light 10h 51m
Length of Day
9h 53m
Waning Gibbous, 95% of the Moon is Illuminated
Nov 19
Waning Gibbous
Nov 25
Last Quarter
Dec 2
New
Dec 9
First Quarter
Dec 17
Full

Hourly Weather History & Observations

Time (PST) Temp. Windchill Dew Point Humidity Pressure Visibility Wind Dir Wind Speed Gust Speed Precip Events Conditions
12:52 AM 41.0 °F 34.3 °F 36.0 °F 82% 30.01 in 10.0 mi South 11.5 mph - N/A   Overcast
1:07 AM 39.9 °F 32.9 °F 36.0 °F 86% 30.09 in 10.0 mi South 11.5 mph - N/A   Overcast
1:52 AM 39.0 °F 33.4 °F 37.9 °F 96% 30.02 in 7.0 mi South 8.1 mph - 0.02 in Rain Light Rain
2:24 AM 39.0 °F 34.0 °F 37.9 °F 96% 30.09 in 3.0 mi South 6.9 mph - 0.04 in Rain Rain
2:29 AM 39.0 °F 33.4 °F 37.9 °F 96% 30.09 in 1.8 mi South 8.1 mph - 0.05 in Rain Rain
2:37 AM 37.9 °F 32.1 °F 37.9 °F 100% 30.09 in 0.8 mi South 8.1 mph - 0.06 in Rain Light Rain
2:52 AM 37.9 °F 30.0 °F 37.9 °F 100% 30.03 in 1.5 mi South 12.7 mph 17.3 mph 0.09 in Rain Rain
2:55 AM 37.9 °F 32.1 °F 37.0 °F 97% 30.09 in 3.0 mi South 8.1 mph 17.3 mph 0.00 in Rain Rain
3:19 AM 37.9 °F 30.5 °F 37.0 °F 97% 30.09 in 2.0 mi South 11.5 mph - 0.04 in Rain Rain
3:33 AM 37.0 °F 29.8 °F 37.0 °F 100% 30.09 in 1.5 mi South 10.4 mph - 0.06 in Rain Light Rain
3:40 AM 37.0 °F 31.6 °F 37.0 °F 100% 30.09 in 0.8 mi Variable 6.9 mph - 0.06 in Rain Light Rain
3:52 AM 37.0 °F 31.6 °F 37.0 °F 100% 30.04 in 1.0 mi South 6.9 mph - 0.07 in Rain Light Rain
3:59 AM 37.0 °F 31.0 °F 37.0 °F 100% 30.09 in 0.5 mi SSE 8.1 mph - 0.01 in Fog , Rain Light Rain
4:44 AM 37.0 °F 31.6 °F 37.0 °F 100% 30.09 in 1.5 mi Variable 6.9 mph - 0.05 in Rain Light Rain
4:48 AM 37.4 °F 32.1 °F 37.4 °F 100% 30.09 in 4.0 mi SSE 6.9 mph - 0.05 in Rain Light Rain
4:52 AM 37.0 °F 33.3 °F 37.0 °F 100% 30.05 in 6.0 mi Variable 4.6 mph - 0.06 in Rain Light Rain
5:07 AM 37.0 °F 33.3 °F 37.0 °F 100% 30.08 in 8.0 mi Variable 4.6 mph - 0.00 in Rain Light Rain
5:31 AM 37.0 °F 33.3 °F 37.0 °F 100% 30.09 in 9.0 mi Variable 4.6 mph - 0.02 in Rain Light Rain
5:52 AM 37.0 °F 33.3 °F 37.0 °F 100% 30.06 in 7.0 mi ESE 4.6 mph - 0.03 in Rain Light Rain
6:04 AM 37.0 °F 33.3 °F 37.0 °F 100% 30.09 in 8.0 mi SE 4.6 mph - 0.00 in   Overcast
6:22 AM 37.9 °F 34.4 °F 37.0 °F 97% 30.10 in 2.5 mi SE 4.6 mph - 0.00 in   Overcast
6:35 AM 37.9 °F 34.4 °F 37.0 °F 97% 30.10 in 2.5 mi Variable 4.6 mph - 0.00 in   Overcast
6:52 AM 37.9 °F 34.4 °F 37.0 °F 97% 30.06 in 1.5 mi SE 4.6 mph - 0.01 in   Overcast
7:02 AM 37.9 °F 34.4 °F 37.0 °F 97% 30.10 in 0.8 mi Variable 4.6 mph - N/A   Overcast
7:16 AM 37.9 °F 34.4 °F 37.9 °F 100% 30.10 in 1.5 mi ESE 4.6 mph - N/A   Overcast
7:19 AM 37.9 °F 34.4 °F 37.9 °F 100% 30.10 in 3.0 mi ESE 4.6 mph - N/A   Overcast
7:39 AM 37.9 °F 35.5 °F 37.0 °F 97% 30.10 in 10.0 mi SE 3.5 mph - N/A   Overcast
7:52 AM 37.9 °F 33.5 °F 37.9 °F 100% 30.06 in 10.0 mi Variable 5.8 mph - N/A   Overcast
8:21 AM 39.0 °F 34.8 °F 39.0 °F 100% 30.10 in 8.0 mi SE 5.8 mph - N/A   Overcast
8:52 AM 39.9 °F 35.1 °F 39.0 °F 97% 30.06 in 7.0 mi SSE 6.9 mph - N/A   Overcast
9:06 AM 39.9 °F 35.8 °F 39.0 °F 97% 30.10 in 4.0 mi SE 5.8 mph - N/A   Overcast
9:52 AM 39.9 °F 35.1 °F 39.9 °F 100% 30.06 in 4.0 mi SSE 6.9 mph - N/A   Overcast
10:52 AM 42.1 °F 37.7 °F 39.9 °F 92% 30.04 in 9.0 mi SSE 6.9 mph - N/A   Overcast
11:49 AM 42.8 °F 36.6 °F 39.2 °F 87% 30.08 in 10.0 mi SSE 11.5 mph - N/A   Overcast
11:52 AM 42.1 °F 36.6 °F 39.9 °F 92% 30.02 in 10.0 mi SSE 9.2 mph - N/A   Overcast
12:38 PM 42.1 °F 36.1 °F 39.9 °F 92% 30.07 in 6.0 mi South 10.4 mph - N/A   Overcast
12:52 PM 42.1 °F 36.6 °F 39.9 °F 92% 30.01 in 4.0 mi SSE 9.2 mph - N/A   Overcast
1:15 PM 42.1 °F 36.6 °F 39.9 °F 92% 30.06 in 9.0 mi SSE 9.2 mph - N/A   Overcast
1:26 PM 42.1 °F 36.1 °F 39.9 °F 92% 30.05 in 10.0 mi SSE 10.4 mph - N/A   Overcast
1:36 PM 42.1 °F 37.1 °F 39.9 °F 92% 30.05 in 1.8 mi South 8.1 mph - 0.00 in Rain Light Rain
1:41 PM 41.0 °F 35.8 °F 41.0 °F 100% 30.06 in 0.8 mi SSW 8.1 mph - 0.00 in Rain Light Rain
1:47 PM 41.0 °F 34.7 °F 39.2 °F 93% 30.05 in 1.5 mi South 10.4 mph - 0.01 in Rain Light Rain
1:50 PM 41.0 °F 34.3 °F 39.2 °F 93% 30.05 in 3.0 mi South 11.5 mph - 0.01 in Rain Light Rain
1:52 PM 41.0 °F 34.3 °F 39.9 °F 96% 30.01 in 3.0 mi South 11.5 mph - 0.01 in Rain Light Rain
2:05 PM 41.0 °F 34.7 °F 39.9 °F 96% 30.05 in 1.5 mi South 10.4 mph - 0.00 in Rain Light Rain
2:46 PM 41.0 °F 34.7 °F 39.2 °F 93% 30.04 in 1.2 mi SSE 10.4 mph 16.1 mph 0.01 in Rain Light Rain
2:52 PM 41.0 °F 34.7 °F 39.9 °F 96% 30.00 in 1.2 mi SSE 10.4 mph - 0.01 in Rain Light Rain
2:58 PM 41.0 °F 35.2 °F 39.9 °F 96% 30.04 in 2.0 mi SSE 9.2 mph - 0.00 in   Overcast
3:01 PM 41.0 °F 36.4 °F 39.9 °F 96% 30.04 in 1.2 mi South 6.9 mph - 0.00 in   Overcast
3:08 PM 41.0 °F 35.8 °F 39.9 °F 96% 30.04 in 0.5 mi SSE 8.1 mph - 0.00 in Fog Fog
3:14 PM 41.0 °F 37.1 °F 39.9 °F 96% 30.04 in 1.5 mi SSE 5.8 mph - 0.00 in Rain Light Rain
3:28 PM 41.0 °F 34.7 °F 39.9 °F 96% 30.04 in 1.0 mi SSE 10.4 mph - 0.00 in   Overcast
3:39 PM 41.0 °F 35.2 °F 39.9 °F 96% 30.03 in 1.8 mi SSE 9.2 mph - 0.01 in Rain Light Rain
3:52 PM 41.0 °F 37.1 °F 39.9 °F 96% 29.99 in 1.0 mi SSE 5.8 mph - 0.01 in   Overcast
4:00 PM 41.0 °F 39.0 °F 39.9 °F 96% 30.03 in 0.5 mi Variable 3.5 mph - N/A Fog Fog
4:11 PM 41.0 °F 39.0 °F 39.9 °F 96% 30.03 in 0.2 mi Variable 3.5 mph - N/A Fog Fog
4:31 PM 41.0 °F 38.0 °F 39.9 °F 96% 30.02 in 1.0 mi SE 4.6 mph - N/A   Overcast
4:34 PM 41.0 °F 37.1 °F 39.9 °F 96% 30.02 in 2.5 mi SE 5.8 mph - N/A   Overcast
4:38 PM 41.0 °F 39.0 °F 39.9 °F 96% 30.01 in 7.0 mi ESE 3.5 mph - N/A   Overcast
4:48 PM 41.0 °F 38.0 °F 39.2 °F 93% 30.01 in 9.0 mi ESE 4.6 mph - N/A   Overcast
4:52 PM 39.9 °F 36.7 °F 39.9 °F 100% 29.97 in 10.0 mi SE 4.6 mph - N/A   Overcast
5:16 PM 41.0 °F 37.1 °F 39.0 °F 93% 30.00 in 10.0 mi SE 5.8 mph - N/A   Overcast
5:52 PM 41.0 °F 35.8 °F 39.0 °F 93% 29.97 in 10.0 mi SSE 8.1 mph - 0.01 in Rain Light Rain
6:52 PM 39.9 °F 35.8 °F 39.0 °F 97% 29.97 in 4.0 mi SSE 5.8 mph - 0.08 in Rain Rain
7:07 PM 39.9 °F 35.8 °F 39.0 °F 97% 30.00 in 2.0 mi SSE 5.8 mph - 0.04 in Rain Rain
7:14 PM 39.9 °F 34.5 °F 39.0 °F 97% 30.00 in 3.0 mi SE 8.1 mph - 0.06 in Rain Rain
7:29 PM 39.9 °F 35.1 °F 39.0 °F 97% 30.01 in 2.5 mi SSE 6.9 mph - 0.08 in Rain Light Rain
7:32 PM 39.9 °F 35.1 °F 39.9 °F 100% 30.01 in 1.2 mi SSE 6.9 mph - 0.08 in Rain Light Rain
7:41 PM 39.9 °F 34.5 °F 39.0 °F 97% 30.01 in 0.5 mi South 8.1 mph - 0.09 in Fog , Rain Light Rain
7:52 PM 39.9 °F 34.5 °F 39.0 °F 97% 29.97 in 1.5 mi SE 8.1 mph - 0.11 in Rain Light Rain
8:00 PM 39.9 °F 36.7 °F 39.0 °F 97% 30.00 in 0.8 mi SE 4.6 mph - 0.01 in Rain Rain
8:25 PM 39.9 °F 36.7 °F 39.9 °F 100% 30.00 in 1.0 mi SE 4.6 mph - 0.04 in Rain Rain
8:47 PM 39.2 °F 34.2 °F 39.2 °F 100% 30.00 in 0.8 mi SE 6.9 mph - 0.08 in Rain Light Rain
8:52 PM 39.9 °F 35.8 °F 39.0 °F 97% 29.95 in 0.5 mi SE 5.8 mph - 0.09 in Fog , Rain Light Rain
9:22 PM 39.9 °F 35.8 °F 39.9 °F 100% 29.99 in 1.2 mi SE 5.8 mph - 0.04 in Rain Rain
9:35 PM 39.9 °F 35.8 °F 39.9 °F 100% 30.00 in 0.5 mi South 5.8 mph - 0.06 in Fog , Rain Rain
9:52 PM 39.9 °F 34.5 °F 39.9 °F 100% 29.96 in 0.5 mi South 8.1 mph - 0.11 in Fog , Rain Rain
10:03 PM 39.9 °F 33.9 °F 39.9 °F 100% 30.00 in 0.2 mi South 9.2 mph - 0.03 in Fog , Rain Rain
10:11 PM 39.9 °F 33.4 °F 39.0 °F 97% 30.00 in 1.0 mi SSE 10.4 mph - 0.05 in Rain Rain
10:24 PM 39.9 °F 34.5 °F 39.9 °F 100% 29.99 in 0.8 mi SSE 8.1 mph - 0.08 in Rain Rain
10:52 PM 39.9 °F 35.1 °F 39.9 °F 100% 29.94 in 1.2 mi South 6.9 mph - 0.16 in Rain Rain
11:02 PM 39.9 °F 35.1 °F 39.9 °F 100% 29.99 in 0.5 mi SE 6.9 mph - 0.03 in Fog , Rain Rain
11:52 PM 39.9 °F 35.8 °F 39.9 °F 100% 29.94 in 0.8 mi SSE 5.8 mph - 0.16 in Rain Rain